Погода в Мурманске

Поиск расширенной информации на нашем сайте:

Полезная информация:

Новости сайта



02.01.2020
Опубликован Долгосрочный прогноз погоды по городам России и ближнего зарубежья на январь 2020 года.
Карты: Прогноз на январь и февраль 2020 года, Сравнение прогнозируемой аномалии приземной температуры воздуха на январь 2020 года по разным моделям.




Погода в Мурманске - сегодня

Время (UTC), дата Ветер
(°,м/с) 
Видим.   Явления Облачность Т
(°С)
Тd
(°С)
f(%) Тe
(°С)
Pmin
(гПа)
dP
(гПа)
Po
(мм)
O2
(г/м3)
Тmin Tmax R s Состояние
почвы
03 16.01.20 тихо () -1  10 км    8/0 средняя, верхняя 
[Ac trans|Ci fib]
-4.2 -4.9 95 -4  994  3.2  741  304  -4.3    0.9     
06 16.01.20 220 (ЮЗ) 1-3{06}  10 км  в посл. час ливневой снег  9/8 600 м кучево-дожд., средняя 
[Cb cap|Ac trans]
-4.2 -5.1 93 -4  996.6  2.5  743  304  -4.7    47  неравномерный
сухой снег
100% 
09 16.01.20 040 (СВ) 1-3{07}  20000 м  {ливн. осадки}  4/3 600 м кучево-дожд., верхняя 
[Cb cap|Ci fib]
-5 -6.6 89 -5  1000.2  3.6  745  307           
12 16.01.20 210 (ЮЗ) 3-3  20000 м  в посл. час ливневой снег  8/8 600 м кучево-дожд. 
[Cb cap]
-6.7 -7.4 95 -9  1002.6  2.3  747  309           
15 16.01.20 220 (ЮЗ) 3-3  4000 м  дымка [диам. изморози 1 мм]  5/4 600 м средняя 
[Sc|Ac trans]
-10 -10.9 93 -13  1004.8  2.1  749  314         
18 16.01.20 190 (Ю) 2-2  10 км  [диам. изморози 2 мм]  9/0 средняя, верхняя 
[Ac trans|Ci fib]
-9.8 -10.7 93 -12  1005.6  0.8  749  314    -3.5  0.2     
21 16.01.20 190 (Ю) 2-3  10 км  [диам. изморози 3 мм]  10/0 средняя, верхняя 
[Ac trans|Ci fib]
-9.4 -10.3 93 -11  1005.3  -0.2  749  314           
00 17.01.20 210 (ЮЗ) 3-5{05}  10 км  [диам. изморози 3 мм]  10/0 средняя 
[Ac As]
-9 -9.9 93 -12  1004.1  -1.2  748  313           
03 17.01.20 210 (ЮЗ) 3-4{05}  2000 м  слаб. снег [диам. изморози 1 мм]  10/0 средняя 
[As op]
-7 -7.7 95 -10  1002.9  -1.2  747  310  -10.4    0.8     
06 17.01.20 360 (С) 2-2  4000 м  слаб. снег  10/10 1000 м 
[Ns]
-6.1 -6.8 95 -8  1003.6  0.8  748  309  -9.8    49  очень
неравномерный
сухой снег
(сугробы, заносы) 
09 17.01.20 020 (С) 3-4{05}  10 км  слаб. ливневой снег  8/8 300 м кучево-дожд. 
[Cb cap]
-5.5 -6.1 96 -8  1006.1  2.5  750  309           
12 17.01.20 020 (С) 5-8{15}  10 км  слаб. ливневой снег  6/5 300 м кучево-дожд., средняя, верхняя 
[Cb cap|Ac trans|Ci fib]
-4.6 -5.4 94 -8  1008.9  2.8  752  309           
15 17.01.20 340 (С) 4-8{08}  10 км  осадки на расстоянии  6/5 300 м кучево-дожд., средняя 
[Cb cap|Ac trans]
-5.7 -7 91 -9  1011.9  2.9  754  311         
18 17.01.20 250 (З) 1-1{07}  10 км    6/6 600 м 
[Sc]
-7.5 -9 89 -7  1013.7  1.8  755  314    -4  0.9     
21 17.01.20 210 (ЮЗ) 3-4{05}  10 км  {ливн. осадки}  4/3 600 м верхняя 
[Sc|Ci fib]
-11.9 -13 92 -15  1015.8  1.9  757  320           
00 18.01.20 210 (ЮЗ) 4-5{06}  10 км  {ливн. осадки}  4/3 300 м верхняя 
[St|Ci fib]
-13.4 -14.6 91 -18  1016.2  0.4  757  322           
03 18.01.20 200 (Ю) 3-5{06}  4000 м  дымка [диам. изморози 1 мм]  3/0 верхняя 
[Ci fib]
-15.6 -17.1 88 -19  1016.4  0.1  757  325  -15.8    0.0     
06 18.01.20 210 (ЮЗ) 4-5{06}  4000 м  дымка [диам. изморози 9 мм]  3/0 верхняя 
[Ci fib]
-18.9 -20.7 86 -24  1016.5  757  329  -19    0.0  48  очень
неравномерный
сухой снег
(сугробы, заносы) 
09 18.01.20 210 (ЮЗ) 5-7{07}  4000 м  дымка [диам. изморози 14 мм]  3/0 верхняя 
[Ci fib]
-19.9 -21.9 84 -26  1016.9  0.4  758  331           
12 18.01.20 190 (Ю) 2-2{07}  2000 м  дымка [диам. изморози 15 мм]  3/0 верхняя 
[Ci fib]
-20.2 -22.2 84 -23  1017  0.1  758  331           
15 18.01.20 200 (Ю) 1-1  4000 м  дымка [диам. изморози 22 мм]  3/0 верхняя 
[Ci fib]
-21.5 -23.6 83 -22  1016.6  -0.4  757  333      0.1     
18 18.01.20 тихо ()   2000 м  в посл. час туман [диам. изморози 31 мм]  1/1 100 м 
[St]
-22.8 -25.2 81 -23  1016.4  -0.3  757  335    -18.9  0.1     
21 18.01.20 200 (Ю) 1-1  0500 м  переохл. туман [диам. изморози 37 мм]  ясно 
-21.9 -24.1 82 -22  1016.4  0.1  757  333           
00 19.01.20 тихо ()   0500 м  переохл. туман [диам. изморози 40 мм]  ?/?  
-19.1 -21.1 84 -19  1016.6  0.2  757  330           
03 19.01.20 090 (В) 1-1  0500 м  переохл. туман [диам. изморози 42 мм]  ?/?  
-18.6 -20.5 85 -19  1016.9  0.3  758  329  -22.9    0.3     
Время (UTC), дата Ветер
(°,м/с) 
Видим.   Явления Облачность Т
(°С)
Тd
(°С)
f(%) Тe
(°С)
Pmin
(гПа)
dP
(гПа)
Po
(мм)
O2
(г/м3)
Тmin Tmax R s Состояние
почвы

Для получения пояснительной информации подведите курсор к названию столбца.

ПОГОДА в Мурманске - архив

Всё, что Вы хотите узнать о погоде в Мурманске - удобно и подробно!

Выберите нужную дату (начиная с 1 января 2019* года) и нажмите кнопку "Найти".
Будут отображены архивные сводки погоды по пункту Мурманск, начиная с указанной даты.


Отображать данные в формате CSV (для использования в таблицах Excel)


Внимание! Наш архив погоды предназначен исключительно для личного некоммерческого использования в познавательных целях. Если Вам необходимы официальные справки о состоянии погоды (для производственных, юридических, коммерческих и т.п. целей), обращайтесь в органы Росгидромета.

*Примечание: данная дата относится к архиву по метеостанциям СССР (Россия, СНГ, Балтия).
Архив по метеостанциям Зарубежной Европы и Азии (кроме Китая) хранится 10 дней, по другим регионам земного шара (Китай, Африка, Америка, Австралия, Океания) - 1 день.

Мурманск - район местоположения метеостанции


Название, широта, долгота, высота метеостанции:
Мурманск (город) 69°ш. 33.1°д. 51 м над ур. моря [Российская Федерация]

Дополнительная информация

В oтличие oт бoльшинства пoгoдных сайтoв мы публикуем пoдрoбную метеoинфoрмацию в детальнoм прoфессиoнальнoм фoрмате.

Характеристики температуры и влажнoсти вoздуха измеряются на высoте 2 м в тени вдали oт зданий и деревьев.
Скoрoсть ветра измеряется на высoте 10 м (на урoвне рoста челoвека скoрoсть ветра ниже в 1.5-2 раза). Если метеoстанция нахoдится в гoрoде или в лесу, тo скoрoсть ветра занижена на 2-4 м/с пo сравнению с oткрытым местoм. Скoрoсть ветра над акватoриями крупных рек и oзёр, а также на вершинах хoлмoв на 2-5 м/с выше, чем в oбычных услoвиях.
Атмoсфернoе давление в разных тoчках местнoсти мoжет значительнo oтличаться oт давления на метеoстанции, в зависимoсти oт услoвий рельефа (при пoдъёме на 10 м давление пoнижается примернo на 1 мм рт.ст.).